Meteo pe oră la Cotiujenii Mari

Astăzi, 19 Mai, Miercuri

Timp Temperatura Precipitaţii Vânt Presiune Umiditate
00:00 +11°C° 0.9 mm 7 m/s 729 mmHg 94%
01:00 +11°C° 0.9 mm 7 m/s 729 mmHg 94%
02:00 +11°C° 0.9 mm 8 m/s 729 mmHg 94%
03:00 +11°C° 3.4 mm 8 m/s 730 mmHg 94%
04:00 +11°C° 3.4 mm 8 m/s 730 mmHg 94%
05:00 +10°C° 3.4 mm 8 m/s 730 mmHg 94%
06:00 +10°C° 1.9 mm 9 m/s 731 mmHg 93%
07:00 +10°C° 1.9 mm 9 m/s 732 mmHg 92%
08:00 +10°C° 1.9 mm 9 m/s 733 mmHg 91%
09:00 +11°C° 0.3 mm 9 m/s 733 mmHg 87%
10:00 +12°C° 0.3 mm 9 m/s 734 mmHg 83%
11:00 +13°C° 0.3 mm 9 m/s 735 mmHg 80%
12:00 +13°C° 0.1 mm 8 m/s 735 mmHg 76%
13:00 +15°C° 0.1 mm 8 m/s 735 mmHg 73%
14:00 +16°C° 0.1 mm 7 m/s 736 mmHg 70%
15:00 +16°C° 0.2 mm 7 m/s 736 mmHg 70%
16:00 +16°C° 0.2 mm 6 m/s 736 mmHg 71%
17:00 +16°C° 0.2 mm 6 m/s 736 mmHg 71%
18:00 +14°C° 0 mm 5 m/s 736 mmHg 76%
19:00 +13°C° 0 mm 3 m/s 737 mmHg 80%
20:00 +13°C° 0 mm 2 m/s 737 mmHg 85%
21:00 +12°C° 0 mm 2 m/s 737 mmHg 86%
22:00 +12°C° 0 mm 1 m/s 737 mmHg 88%
23:00 +11°C° 0 mm 1 m/s 737 mmHg 89%

Mâine, 20 Mai, Joi

Timp Temperatura Precipitaţii Vânt Presiune Umiditate
00:00 +11°C° 0 mm 1 m/s 737 mmHg 90%
01:00 +10°C° 0 mm 1 m/s 737 mmHg 90%
02:00 +10°C° 0 mm 1 m/s 737 mmHg 91%
03:00 +10°C° 0 mm 1 m/s 737 mmHg 91%
04:00 +10°C° 0 mm 1 m/s 737 mmHg 91%
05:00 +10°C° 0 mm 1 m/s 737 mmHg 91%
06:00 +11°C° 0 mm 1 m/s 737 mmHg 87%
07:00 +12°C° 0 mm 1 m/s 737 mmHg 83%
08:00 +13°C° 0 mm 2 m/s 737 mmHg 79%
09:00 +14°C° 0.4 mm 2 m/s 737 mmHg 80%
10:00 +13°C° 0.4 mm 3 m/s 737 mmHg 81%
11:00 +13°C° 0.4 mm 4 m/s 737 mmHg 82%
12:00 +13°C° 1.5 mm 4 m/s 737 mmHg 86%
13:00 +12°C° 1.5 mm 4 m/s 737 mmHg 89%
14:00 +11°C° 1.5 mm 4 m/s 737 mmHg 93%
15:00 +10°C° 0.3 mm 5 m/s 737 mmHg 93%
16:00 +10°C° 0.3 mm 5 m/s 737 mmHg 93%
17:00 +10°C° 0.3 mm 5 m/s 736 mmHg 94%
18:00 +10°C° 0.9 mm 5 m/s 736 mmHg 94%
19:00 +11°C° 0.9 mm 4 m/s 736 mmHg 95%
20:00 +11°C° 0.9 mm 4 m/s 737 mmHg 96%
21:00 +11°C° 0.8 mm 4 m/s 737 mmHg 96%
22:00 +11°C° 0.8 mm 4 m/s 737 mmHg 96%
23:00 +11°C° 0.8 mm 4 m/s 737 mmHg 96%

Poimâine, 21 Mai, Vineri

Timp Temperatura Precipitaţii Vânt Presiune Umiditate
00:00 +11°C° 0.3 mm 4 m/s 737 mmHg 96%
01:00 +11°C° 0.3 mm 4 m/s 737 mmHg 96%
02:00 +11°C° 0.3 mm 4 m/s 737 mmHg 95%
03:00 +11°C° 0.3 mm 3 m/s 737 mmHg 96%
04:00 +11°C° 0.3 mm 3 m/s 737 mmHg 96%
05:00 +11°C° 0.3 mm 3 m/s 737 mmHg 96%
06:00 +11°C° 0.4 mm 3 m/s 738 mmHg 96%
07:00 +11°C° 0.4 mm 3 m/s 738 mmHg 95%
08:00 +11°C° 0.4 mm 4 m/s 738 mmHg 94%
09:00 +11°C° 0.3 mm 4 m/s 739 mmHg 93%
10:00 +12°C° 0.3 mm 4 m/s 739 mmHg 93%
11:00 +12°C° 0.3 mm 4 m/s 739 mmHg 92%
12:00 +12°C° 0.1 mm 4 m/s 739 mmHg 90%
13:00 +12°C° 0.1 mm 5 m/s 739 mmHg 89%
14:00 +13°C° 0.1 mm 5 m/s 739 mmHg 87%
15:00 +13°C° 0 mm 5 m/s 739 mmHg 86%
16:00 +13°C° 0 mm 5 m/s 740 mmHg 86%
17:00 +13°C° 0 mm 4 m/s 740 mmHg 85%
18:00 +12°C° 0 mm 4 m/s 740 mmHg 88%
19:00 +11°C° 0 mm 4 m/s 740 mmHg 90%
20:00 +11°C° 0 mm 3 m/s 741 mmHg 92%
21:00 +10°C° 0 mm 3 m/s 740 mmHg 92%
22:00 +9°C° 0 mm 3 m/s 740 mmHg 93%
23:00 +9°C° 0 mm 3 m/s 740 mmHg 94%

22 Mai, Sâmbătă

Timp Temperatura Precipitaţii Vânt Presiune Umiditate
00:00 +9°C° 0 mm 3 m/s 740 mmHg 94%
01:00 +8°C° 0 mm 3 m/s 740 mmHg 95%
02:00 +8°C° 0 mm 3 m/s 741 mmHg 95%
03:00 +8°C° 0 mm 3 m/s 741 mmHg 95%
04:00 +8°C° 0 mm 3 m/s 740 mmHg 95%
05:00 +8°C° 0 mm 3 m/s 740 mmHg 94%
06:00 +10°C° 0 mm 3 m/s 740 mmHg 89%
07:00 +12°C° 0 mm 4 m/s 740 mmHg 84%
08:00 +13°C° 0 mm 5 m/s 740 mmHg 79%
09:00 +15°C° 0 mm 4 m/s 740 mmHg 75%
10:00 +17°C° 0 mm 4 m/s 740 mmHg 70%
11:00 +19°C° 0 mm 4 m/s 740 mmHg 66%
12:00 +19°C° 0 mm 4 m/s 740 mmHg 66%
13:00 +19°C° 0 mm 3 m/s 740 mmHg 65%
14:00 +19°C° 0 mm 3 m/s 740 mmHg 65%
15:00 +19°C° 0 mm 2 m/s 740 mmHg 67%
16:00 +19°C° 0 mm 2 m/s 740 mmHg 69%
17:00 +19°C° 0 mm 2 m/s 739 mmHg 70%
18:00 +19°C° 0 mm 1 m/s 739 mmHg 73%
19:00 +18°C° 0 mm 1 m/s 739 mmHg 76%
20:00 +16°C° 0 mm 1 m/s 739 mmHg 79%
21:00 +16°C° 0 mm 1 m/s 739 mmHg 81%
22:00 +15°C° 0 mm 1 m/s 739 mmHg 83%
23:00 +13°C° 0 mm 0 m/s 739 mmHg 85%

23 Mai, Duminică

Timp Temperatura Precipitaţii Vânt Presiune Umiditate
00:00 +13°C° 0 mm 0 m/s 739 mmHg 85%
01:00 +12°C° 0 mm 0 m/s 739 mmHg 86%
02:00 +12°C° 0 mm 0 m/s 739 mmHg 86%
03:00 +12°C° 0 mm 0 m/s 739 mmHg 86%
04:00 +13°C° 0 mm 1 m/s 739 mmHg 86%
05:00 +13°C° 0 mm 1 m/s 739 mmHg 86%
06:00 +15°C° 0 mm 1 m/s 739 mmHg 81%
07:00 +16°C° 0 mm 1 m/s 739 mmHg 76%
08:00 +19°C° 0 mm 1 m/s 739 mmHg 71%
09:00 +19°C° 0 mm 2 m/s 739 mmHg 68%
10:00 +20°C° 0 mm 2 m/s 739 mmHg 64%
11:00 +23°C° 0 mm 2 m/s 739 mmHg 61%
12:00 +23°C° 0 mm 2 m/s 739 mmHg 58%
13:00 +24°C° 0 mm 3 m/s 739 mmHg 55%
14:00 +25°C° 0 mm 3 m/s 738 mmHg 51%
15:00 +25°C° 0 mm 3 m/s 738 mmHg 54%
16:00 +25°C° 0 mm 3 m/s 738 mmHg 56%
17:00 +25°C° 0 mm 3 m/s 738 mmHg 58%
18:00 +22°C° 0 mm 3 m/s 738 mmHg 63%
19:00 +21°C° 0 mm 3 m/s 738 mmHg 67%
20:00 +19°C° 0 mm 2 m/s 738 mmHg 72%
21:00 +17°C° 0.7 mm 4 m/s 739 mmHg 79%
22:00 +15°C° 0.7 mm 5 m/s 740 mmHg 86%
23:00 +13°C° 0.7 mm 6 m/s 741 mmHg 93%

24 Mai, Luni

Timp Temperatura Precipitaţii Vânt Presiune Umiditate
00:00 +13°C° 1.2 mm 5 m/s 741 mmHg 94%
01:00 +12°C° 1.2 mm 4 m/s 741 mmHg 94%
02:00 +12°C° 1.2 mm 4 m/s 741 mmHg 94%
03:00 +11°C° 0.1 mm 4 m/s 742 mmHg 93%
04:00 +11°C° 0.1 mm 4 m/s 742 mmHg 92%
05:00 +11°C° 0.1 mm 4 m/s 743 mmHg 92%
06:00 +12°C° 0 mm 5 m/s 743 mmHg 87%
07:00 +13°C° 0 mm 5 m/s 744 mmHg 82%
08:00 +14°C° 0 mm 6 m/s 745 mmHg 78%
09:00 +15°C° 0 mm 6 m/s 745 mmHg 72%
10:00 +16°C° 0 mm 6 m/s 745 mmHg 66%
11:00 +17°C° 0 mm 7 m/s 746 mmHg 60%
12:00 +17°C° 0 mm 7 m/s 746 mmHg 59%
13:00 +17°C° 0 mm 6 m/s 746 mmHg 57%
14:00 +19°C° 0 mm 6 m/s 746 mmHg 55%
15:00 +19°C° 0 mm 6 m/s 746 mmHg 56%
16:00 +19°C° 0 mm 5 m/s 746 mmHg 57%
17:00 +19°C° 0 mm 5 m/s 746 mmHg 58%
18:00 +17°C° 0 mm 4 m/s 747 mmHg 62%
19:00 +16°C° 0 mm 3 m/s 747 mmHg 67%
20:00 +14°C° 0 mm 2 m/s 748 mmHg 72%
21:00 +13°C° 0 mm 2 m/s 748 mmHg 74%
22:00 +13°C° 0 mm 2 m/s 748 mmHg 76%
23:00 +12°C° 0 mm 1 m/s 748 mmHg 77%
Arată mai mult

Formular de consimțământ

Meteoprog și furnizorii noștri de servicii pot stoca și accesa date personale, precum cookies, identificatori de dispozitiv sau alte tehnologii similare pe dispozitivul dumneavoastră și procesa astfel de date pentru a personaliza conținutul și reclamele, dar și pentru a oferi caracteristici de social media și pentru a analiza traficul.

  • Stocarea și/sau accesarea informațiilor pe dispozitivul dumneavoastră

    Cookies, identificatori de dispozitiv sau alte informații pot fi stocate sau accesate pe dispozitiv în scopurile indicate mai sus.

  • Reclame și conținut personalizat, evaluarea reclamelor și a conținutului, informații despre audiențe și dezvoltarea produselor

    Reclamele și conținutul pot fi personalizate pe baza unui profil. Pot fi adăugate date suplimentare pentru a personaliza mai bine reclamele și conținutul. Performanța reclamelor și conținutului poate fi măsurată. Pot fi obținute informații despre utilizatorii care au văzut reclamele și conținutul. Aceste date pot fi utilizate pentru a dezvolta sau îmbunătăți experiența utilizatorilor, sistemele și software-ul.

Dând clic pe ‘Sunt de acord’, permiteți utilizarea cookie-urilor menționate, a identificatorilor de dispozitiv, balizelor web sau altor tehnologii similare. Setările pot fi modificate din browser-ul dispozitivului dumneavoastră.

În anumite scopuri, interesele legitime pot prima asupra consimțământului. Puteți citi mai multe informații în acest sens în Politica privind Confidențialitatea Datelor și Cookie.